Renton, WA
on Friday, January 4, 2013

Friday
Previous Day Next Day
Daily Summary
 ActualAverage (KSEA)Record (KSEA)
Temperature
Mean Temperature °F 41°F  
Max Temperature 48°F 46°F 61°F (1984)
Min Temperature 37°F 36°F 14°F (1950)
Degree Days
Heating Degree Days 22 24  
Month to date heating degree days 96  
Since 1 July heating degree days 2034  
Cooling Degree Days 0 0  
Month to date cooling degree days 0  
Year to date cooling degree days 0  
Moisture
Dew Point 39°F   
Average Humidity 91    
Maximum Humidity 100    
Minimum Humidity 80    
Precipitation
Precipitation 0.04 in 0.19 in 1.56 in (1967)
Month to date precipitation 0.74  
Year to date precipitation 0.74  
Snow
Snow 0.00 in in 5.90 in (1967)
Month to date snowfall  
Since 1 July snowfall  
Snow Depth in   
Wind
Wind Speed 3 mph   
Max Wind Speed 8 mph   
Max Gust Speed mph   
Visibility 8 miles   
Events Rain   

Key: T is trace of precipitation, MM is missing value
Source: NWS Daily Summary
Time(PST)TemperatureDew PointHumidity Pressure Visibility Wind DirectionWind SpeedGust SpeedPrecipitationEvents Conditions
12:33 AM 37.4°F 35.6°F 93% 30.19 in 3.0 miles Calm Calm - 0.01 in Rain Light Rain
12:48 AM 37.4°F 35.6°F 93% 30.19 in 3.0 miles East 3.5 mph - 0.02 in Rain Light Rain
12:53 AM 37.0°F 36.0°F 96% 30.21 in 3.0 miles East 3.5 mph - 0.02 in Rain Light Rain
1:53 AM 37.0°F 35.1°F 93% 30.23 in 8.0 miles SSE 4.6 mph - 0.00 in   Overcast
2:53 AM 37.0°F 36.0°F 96% 30.25 in 4.0 miles ESE 3.5 mph - 0.01 in Rain Light Rain
3:53 AM 37.9°F 36.0°F 93% 30.26 in 8.0 miles ESE 4.6 mph - 0.00 in   Overcast
4:33 AM 39.2°F 37.4°F 93% 30.24 in 8.0 miles SE 5.8 mph - N/A   Overcast
4:53 AM 39.2°F 37.4°F 93% 30.24 in 7.0 miles ESE 5.8 mph - N/A   Overcast
5:05 AM 39.2°F 37.4°F 93% 30.25 in 5.0 miles SE 4.6 mph - N/A   Overcast
5:43 AM 39.2°F 37.4°F 93% 30.25 in 3.0 miles SE 4.6 mph - N/A   Overcast
5:53 AM 39.9°F 37.9°F 93% 30.27 in 5.0 miles SE 3.5 mph - 0.00 in Rain Light Rain
6:10 AM 39.2°F 37.4°F 93% 30.26 in 5.0 miles SSE 4.6 mph - 0.00 in Rain Light Rain
6:24 AM 39.2°F 37.4°F 93% 30.27 in 4.0 miles SSE 5.8 mph - 0.01 in Rain Light Rain
6:37 AM 39.2°F 37.4°F 93% 30.27 in 4.0 miles SE 5.8 mph - 0.01 in Rain Light Rain
6:53 AM 39.9°F 37.9°F 93% 30.29 in 3.0 miles SE 6.9 mph - 0.01 in Rain Light Rain
7:53 AM 39.9°F 39.0°F 97% 30.29 in 10.0 miles SE 8.1 mph - 0.00 in   Overcast
8:53 AM 39.9°F 39.0°F 97% 30.32 in 8.0 miles SSE 3.5 mph - N/A   Overcast
9:41 AM 41.0°F 39.2°F 93% 30.32 in 10.0 miles SSE 5.8 mph - N/A   Overcast
9:53 AM 42.1°F 39.9°F 92% 30.33 in 10.0 miles SE 4.6 mph - N/A   Overcast
10:28 AM 42.8°F 41.0°F 93% 30.32 in 10.0 miles Calm Calm - N/A   Mostly Cloudy
10:53 AM 45.0°F 42.1°F 90% 30.34 in 10.0 miles ESE 3.5 mph - N/A   Overcast
11:34 AM 46.4°F 42.8°F 87% 30.31 in 10.0 miles East 4.6 mph - N/A   Mostly Cloudy
11:53 AM 46.9°F 44.1°F 90% 30.31 in 10.0 miles East 6.9 mph - N/A   Scattered Clouds
12:53 PM 48.0°F 44.1°F 86% 30.30 in 10.0 miles ESE 6.9 mph - N/A   Partly Cloudy
1:13 PM 48.2°F 44.6°F 87% 30.28 in 10.0 miles East 3.5 mph - N/A   Mostly Cloudy
1:53 PM 48.9°F 44.1°F 83% 30.28 in 10.0 miles East 3.5 mph - N/A   Overcast
2:53 PM 48.9°F 43.0°F 80% 30.27 in 10.0 miles Calm Calm - N/A   Overcast
3:53 PM 48.0°F 43.0°F 83% 30.27 in 10.0 miles Calm Calm - N/A   Clear
4:53 PM 44.6°F 42.8°F 93% 30.24 in 10.0 miles Calm Calm - N/A   Clear
5:53 PM 44.1°F 42.1°F 93% 30.23 in 10.0 miles Calm Calm - N/A   Clear
6:53 PM 44.1°F 41.0°F 89% 30.22 in 10.0 miles Calm Calm - N/A   Clear
7:53 PM 39.9°F 39.9°F 100% 30.22 in 9.0 miles Calm Calm - N/A   Mostly Cloudy
8:53 PM 41.0°F 39.9°F 96% 30.21 in 10.0 miles Calm Calm - N/A   Overcast
9:53 PM 42.1°F 37.9°F 85% 30.20 in 10.0 miles Calm Calm - N/A   Mostly Cloudy
10:53 PM 42.1°F 37.0°F 82% 30.19 in 10.0 miles Calm Calm - N/A   Mostly Cloudy
11:53 PM 42.1°F 39.0°F 89% 30.19 in 10.0 miles NW 3.5 mph - N/A   Overcast
Moon Phase
Jan. 04 Jan. 04 Jan. 11 Jan. 18 Jan. 26
Sunrise:07:56 AM (PST) Moon Rise:No Moon Rise/
Sunset:04:31 PM (PST) Moon Set:11:09 AM (PST)1/4

Copyright © 2014 The Weather Underground, Inc.